Probability
0 0 0 0 0 0 0 0 1 2 3 3 2 4 9 16 22 26 29 31 29 26 27 29 30 33 32 30 30 29 26 23 20 18 17 15 13 13 13 12 11 11 8 7
0 0 0 0 0 1 1 0 1 5 6 5 5 7 12 17 22 26 30 31 30 27 26 27 28 27 26 25 24 23 22 20 17 15 14 13 12 12 13 12 11 12 11 10
0 0 0 0 0 1 2 1 3 7 9 9 9 12 15 18 22 26 28 27 27 27 26 25 24 22 20 19 18 18 18 16 13 12 13 13 12 11 12 12 13 14 14 13
0 0 0 0 0 1 2 2 4 8 12 14 18 20 19 18 20 23 23 20 21 25 25 24 21 19 18 16 14 15 14 13 12 12 13 14 13 12 12 13 15 15 15 16
0 0 0 0 0 1 1 3 6 10 15 21 27 28 24 19 18 19 18 16 16 20 23 21 17 16 16 14 12 11 11 11 12 13 14 16 17 16 16 16 16 16 16 16
0 0 0 1 2 2 1 3 9 14 18 22 27 28 23 18 15 15 15 14 14 16 18 17 13 12 14 13 11 9 9 9 10 12 14 17 18 19 19 17 15 14 14 14
0 0 1 3 5 3 2 4 9 16 19 19 20 21 18 14 12 13 16 17 17 16 14 12 11 11 12 13 10 8 8 8 8 10 12 14 15 15 15 13 11 11 10 10
0 0 1 4 5 3 2 5 9 14 17 17 17 17 15 13 13 16 19 19 18 16 12 9 9 10 11 11 9 7 6 5 6 7 8 10 10 11 10 9 8 8 8 7
2 2 3 5 5 4 4 7 10 12 14 15 17 16 15 16 18 19 19 18 17 15 11 8 8 9 10 9 8 6 4 4 4 5 6 7 8 8 9 9 9 8 7 6
5 5 6 6 6 5 7 8 10 11 12 14 17 17 16 17 19 18 17 15 14 12 9 8 8 10 9 9 8 7 6 5 5 4 4 4 5 5 7 8 8 8 6 4
5 6 7 8 7 7 9 10 10 11 12 14 18 18 16 15 15 15 15 15 13 11 9 8 10 10 9 9 8 7 6 5 5 4 3 2 2 2 2 4 4 5 4 2
4 4 6 6 6 6 9 10 11 12 12 13 15 15 14 12 12 12 13 14 13 11 9 8 10 10 8 7 6 5 4 4 4 4 3 2 2 1 0 1 1 1 1 1
3 3 3 3 4 4 6 8 9 11 10 9 9 9 9 10 10 10 10 10 10 9 8 8 9 9 7 5 3 3 3 3 2 3 3 3 3 2 1 0 0 0 0 0
3 3 2 1 2 2 3 3 5 6 6 5 4 5 5 7 8 8 7 7 6 7 7 7 6 6 6 5 3 3 2 1 1 1 2 3 3 3 1 0 0 0 0 0
2 1 1 0 1 1 1 1 1 2 4 5 4 4 4 5 6 7 6 6 6 6 5 4 4 4 6 6 4 3 2 1 0 0 1 1 2 2 2 1 0 0 0 0
1 0 0 0 0 0 0 0 0 2 5 5 4 4 4 5 6 6 6 6 5 4 4 3 3 4 5 5 3 2 1 0 0 0 0 0 1 1 1 1 0 0 0 0
0 0 0 0 0 0 0 0 0 2 4 4 3 3 4 5 6 6 6 5 4 3 3 3 3 3 4 3 2 1 0 0 0 0 0 0 0 0 0 0 0 0 0 0
0 0 0 0 0 0 0 0 1 2 4 4 4 4 5 6 6 6 5 4 3 2 2 2 2 2 2 2 1 0 0 0 0 0 0 0 0 0 0 0 0 0 0 0
0 0 0 0 0 0 0 0 1 2 4 5 6 6 6 6 6 5 3 1 1 1 1 1 0 1 1 1 0 0 0 0 0 0 0 0 0 0 0 0 0 0 0 0
0 0 0 0 0 0 0 0 1 1 3 4 5 5 5 4 4 3 1 0 0 0 0 0 0 0 0 0 0 0 0 0 0 0 0 0 0 0 0 0 0 0 0 0
0 0 0 0 0 0 0 0 0 0 1 1 2 2 2 1 1 1 0 0 0 0 0 0 0 0 0 0 0 0 0 0 0 0 0 0 0 0 0 0 0 0 0 0
0 0 0 0 0 0 0 0 0 0 0 0 0 0 0 0 0 0 0 0 0 0 0 0 0 0 0 0 0 0 0 0 0 0 0 0 0 0 0 0 0 0 0 0
0 0 0 0 0 0 0 0 0 0 0 0 0 0 0 0 0 0 0 0 0 0 0 0 0 0 0 0 0 0 0 0 0 0 0 0 0 0 0 0 0 0 0 0
0 0 0 0 0 0 0 0 0 0 0 0 0 0 0 0 0 0 0 0 0 0 0 0 0 0 0 0 0 0 0 0 0 0 0 0 0 0 0 0 0 0 0 0
1 0 0 0 0 0 0 0 0 0 0 0 0 0 0 0 0 0 0 0 0 0 0 0 0 0 0 0 0 0 0 0 0 0 0 0 0 0 0 0 0 0 0 0
1 0 0 0 0 0 0 0 0 0 0 0 0 0 0 0 0 0 0 0 0 0 0 0 0 0 0 0 0 0 0 0 0 0 0 0 0 0 0 0 0 0 0 0
1 0 0 0 0 0 0 0 0 0 0 0 0 0 0 0 0 0 0 0 0 0 0 0 0 0 0 0 0 0 0 0 0 0 0 0 0 0 0 0 0 0 0 0
Wind_Speed
4 3 2 2 3 2 4 7 8 8 9 10 9 8 5 4 4 5 6 7 8 7 6 6 6 7 8 7 7 8 8 7 8 7 6 6 6 6 6 6 7 6 6 6
1 1 1 2 3 2 2 3 4 6 5 6 5 4 3 4 6 6 6 7 7 7 7 7 7 7 7 7 7 7 7 6 5 5 5 6 6 5 5 5 5 5 6 6
2 3 2 3 3 1 1 2 6 7 7 4 5 5 5 5 5 5 4 4 5 6 5 6 6 7 7 7 7 7 6 6 5 5 5 6 6 5 5 5 5 5 5 5
1 2 4 7 2 1 1 0 2 4 6 8 9 6 4 3 5 5 4 3 4 4 4 4 4 5 6 6 6 6 5 5 5 5 5 5 5 5 5 4 4 4 4 4
3 3 3 3 2 1 1 2 1 6 8 8 9 8 5 3 5 5 4 5 5 5 5 5 5 5 6 6 5 6 5 5 5 5 5 5 5 5 4 3 3 3 3 4
4 4 4 5 5 3 3 1 1 6 10 9 8 6 2 1 5 6 5 5 5 5 5 6 5 5 7 6 5 5 4 4 4 4 4 5 5 4 3 3 3 3 2 2
4 3 4 4 7 2 3 4 2 4 8 7 5 6 6 5 6 6 6 6 6 6 5 4 4 6 6 5 4 3 3 4 4 4 4 4 4 3 3 3 4 3 3 2
4 3 5 5 3 2 3 1 2 4 6 8 8 8 7 7 7 6 6 6 6 6 5 3 4 6 6 4 3 3 4 4 4 3 3 4 4 3 4 4 4 3 3 3
4 4 1 1 1 1 2 3 3 5 6 10 10 8 8 7 7 7 7 6 4 6 5 4 4 5 5 3 3 4 5 4 4 4 3 4 4 4 4 4 3 3 3 3
3 2 2 3 4 5 4 4 4 7 8 9 11 9 8 6 6 7 6 5 4 6 5 4 3 4 4 3 4 5 5 4 4 5 4 4 3 3 3 3 3 3 3 3
2 2 3 4 5 5 6 7 8 8 8 8 11 10 8 7 6 6 6 4 5 5 5 4 3 3 3 4 5 6 5 5 5 5 5 5 5 4 4 3 2 4 3 3
3 4 3 1 2 5 7 7 8 8 9 8 8 9 8 7 6 6 6 5 6 6 5 4 4 4 3 3 5 6 5 5 4 4 4 5 6 6 10 8 8 8 7 6
3 2 4 3 4 6 7 7 8 9 9 9 8 8 9 7 6 6 7 6 6 5 5 4 4 4 3 3 4 5 5 5 4 4 4 4 5 6 6 7 11 10 9 9
3 5 5 3 5 7 8 9 10 10 8 8 8 8 8 7 7 7 6 5 5 5 5 5 5 4 3 3 5 5 6 6 5 4 3 4 4 4 5 6 6 5 7 9
3 4 6 6 7 7 8 9 10 9 8 8 8 7 8 8 8 7 6 6 6 7 6 6 5 4 3 4 5 6 5 4 4 4 4 4 5 5 5 6 6 5 5 6
4 5 7 8 8 8 9 9 9 8 7 7 8 8 8 8 8 8 7 6 7 6 5 6 5 4 4 5 6 5 5 9 8 5 5 5 5 5 5 6 6 5 5 4
6 6 7 8 8 9 9 8 9 8 7 8 8 8 8 9 9 8 7 6 6 6 6 6 5 5 5 5 5 5 4 6 9 7 5 5 5 5 5 6 6 5 4 5
5 6 7 8 8 9 9 9 9 9 8 9 9 9 9 9 9 7 6 6 7 8 8 7 6 6 7 6 6 5 5 5 5 6 6 6 6 5 6 6 7 7 5 6
7 8 9 9 10 10 9 9 9 9 8 8 9 9 9 8 7 7 7 7 8 7 6 7 9 9 8 8 8 6 6 7 7 7 6 8 7 6 6 6 6 6 6 5
8 9 10 10 10 10 9 9 9 9 9 9 10 10 9 8 7 7 8 8 5 3 4 6 7 7 7 8 10 6 7 8 8 7 7 7 7 6 6 7 6 6 6 6
9 10 10 10 9 9 9 9 9 9 8 9 10 9 9 7 7 7 7 7 6 6 7 9 7 6 6 7 10 7 7 8 8 7 7 7 7 7 7 6 6 6 6 6
8 9 10 9 9 9 8 8 9 10 9 9 9 9 9 8 8 8 7 5 4 7 6 6 6 8 9 9 7 8 8 8 7 7 7 7 7 7 7 6 6 6 5 5
8 8 9 9 9 10 10 9 9 9 10 9 8 8 7 6 5 6 5 3 4 8 6 6 9 12 12 8 7 8 8 8 7 7 7 7 6 6 6 6 6 5 5 5
8 8 8 8 9 11 10 9 8 8 9 8 7 7 6 6 6 4 4 6 9 9 7 8 12 13 11 7 7 7 7 7 7 7 7 6 6 6 6 6 6 5 5 6
8 8 9 9 9 8 9 9 9 9 9 7 7 7 5 5 5 4 5 6 8 8 6 9 12 11 8 6 7 6 6 6 6 6 6 6 6 6 6 5 5 5 5 5
7 7 7 7 7 6 6 7 7 6 7 7 5 4 4 4 5 5 5 6 8 8 6 5 6 8 7 7 7 7 6 6 7 7 6 6 6 6 5 5 6 4 4 4
8 7 7 7 6 6 6 6 7 6 6 7 6 4 4 4 5 5 5 5 5 5 5 5 5 6 6 7 7 7 6 6 6 6 5 5 5 4 4 5 4 3 3 4
Wind_Direction
207 206 152 216 249 209 169 180 178 199 193 212 203 195 184 162 135 129 145 144 153 164 166 166 168 167 165 167 170 170 169 178 190 191 189 188 189 192 192 192 196 196 194 196
306 318 26 321 312 277 219 180 170 157 207 219 178 151 146 149 135 140 156 156 155 157 165 168 170 171 165 165 168 162 167 177 181 180 182 187 190 190 187 192 195 190 190 193
252 299 28 288 270 223 215 179 159 178 208 182 139 142 160 153 131 122 129 136 144 151 162 170 171 166 161 159 157 157 165 173 177 180 182 190 190 182 184 188 185 185 190 189
149 78 217 242 247 170 157 238 165 162 165 154 141 132 106 107 119 116 118 124 125 127 131 141 138 135 140 137 145 152 157 162 167 173 183 182 174 177 179 177 177 175 172 175
129 166 257 292 314 297 141 317 331 148 142 135 125 91 53 67 114 125 129 123 128 133 130 122 121 127 124 123 132 140 150 160 167 169 169 165 164 171 169 162 163 166 166 172
132 150 218 254 283 286 117 298 320 136 142 145 132 121 169 113 101 102 98 108 117 116 106 113 121 124 122 126 132 145 158 160 157 158 156 159 160 155 147 146 148 144 149 162
156 175 246 277 297 14 135 225 239 145 138 134 128 145 149 123 101 100 105 105 106 107 104 115 124 120 119 121 138 155 145 135 130 138 147 149 142 136 135 134 128 128 131 115
147 165 244 328 20 96 215 228 125 102 111 108 107 110 108 104 102 99 92 90 102 105 102 108 117 118 117 125 132 119 118 114 116 120 131 127 127 131 130 134 136 140 121 98
167 183 216 30 100 218 140 112 109 104 116 118 112 111 103 96 98 94 92 91 94 104 100 92 105 118 122 132 117 108 105 105 105 101 94 106 119 128 123 127 131 133 125 116
95 92 77 50 47 42 71 90 90 104 111 114 113 109 106 100 95 91 87 90 95 101 100 95 91 100 117 120 111 105 110 110 110 106 97 89 90 98 112 125 132 127 123 118
92 108 67 35 35 52 66 69 77 85 95 104 109 108 107 101 98 94 86 80 89 100 101 96 91 88 96 114 112 104 104 105 103 104 108 95 81 67 80 70 117 128 124 124
203 204 158 164 79 81 89 85 91 98 90 89 101 105 100 98 93 89 83 76 76 81 86 82 79 76 74 94 111 113 108 104 103 107 110 110 106 84 60 70 73 85 98 110
191 149 120 132 100 93 95 95 94 92 97 96 88 95 97 96 91 87 81 77 76 74 74 72 71 63 61 90 104 111 117 117 112 113 117 119 121 120 107 69 60 60 72 85
132 110 106 111 100 96 101 98 94 86 83 89 89 89 92 90 88 84 78 73 72 69 61 61 64 54 54 86 98 103 106 108 111 114 120 123 122 120 119 116 98 68 53 66
67 102 121 114 101 95 101 100 94 93 90 85 87 90 91 90 87 79 71 67 67 63 55 54 56 42 47 86 95 98 103 105 105 105 104 105 109 109 106 105 105 101 86 63
95 97 107 107 106 103 107 107 106 103 100 97 93 91 89 91 86 76 65 62 67 61 51 52 49 36 59 87 95 94 96 100 101 100 98 98 101 106 108 107 106 103 98 93
122 120 115 111 106 104 107 111 113 111 107 103 98 96 95 92 85 75 64 58 64 60 51 51 47 45 62 81 94 96 95 99 98 99 97 96 96 101 107 107 105 99 91 83
130 128 125 123 118 107 103 106 108 105 101 101 100 94 92 91 90 83 71 64 64 56 42 37 45 54 57 64 81 92 93 90 90 93 93 91 92 92 94 98 100 97 90 81
105 110 110 110 109 105 103 104 101 98 98 98 98 94 90 87 85 80 73 67 64 56 34 35 50 58 60 65 75 83 90 89 86 84 87 90 89 87 90 93 95 96 95 88
101 103 103 103 103 104 104 104 103 99 100 102 100 96 91 84 82 80 76 67 51 49 48 52 56 59 62 69 75 77 83 86 88 89 88 87 90 91 90 92 94 94 91 88
108 109 110 108 103 101 103 105 105 102 99 99 101 100 97 88 82 80 79 69 36 41 56 57 57 59 64 73 77 78 81 85 86 87 87 87 88 89 89 88 88 89 90 90
109 109 112 111 108 103 101 101 101 102 100 96 95 97 96 89 83 75 65 68 59 59 61 58 61 67 71 73 76 80 83 85 85 85 86 86 87 88 87 88 88 87 87 87
114 115 115 115 115 111 104 101 101 101 99 98 97 97 95 92 86 90 79 53 65 68 67 65 72 72 72 71 74 79 82 83 83 83 84 84 84 85 87 87 86 86 84 83
119 118 120 120 116 113 110 107 104 101 100 97 93 94 97 95 80 70 85 81 77 76 72 70 72 73 73 73 77 80 81 84 85 86 87 86 84 83 82 84 83 81 81 81
119 118 118 119 118 119 118 116 109 104 100 95 89 83 82 90 99 93 84 81 79 77 74 72 75 74 74 77 80 82 83 85 91 92 89 90 89 89 87 85 85 83 83 82
115 117 118 119 119 119 119 117 112 111 110 104 97 92 88 84 86 84 81 78 77 76 74 73 75 76 78 78 79 81 82 83 84 84 87 89 91 92 92 91 89 90 89 87
106 105 104 102 100 104 108 111 112 112 112 114 112 104 98 94 92 91 89 85 83 83 82 81 80 80 83 81 78 77 77 77 80 84 85 85 88 92 95 95 93 90 89 90